Location: Centerville
(32.8776°N, 96.6203°W)
Time: 05:23:44
(UTC+00:00)

NOSS 3-2 (C) - Pass Details

Date: 17 June 2021
Orbit: 778 x 1434 km, 63.4° (Epoch: 14 July)

Event Time Altitude Azimuth Distance (km) Brightness Sun altitude
Rises 02:26:44 0° 213° (SSW) 3,254 6.2 -9.7°
Reaches altitude 10° 02:29:03 10° 215° (SW) 2,354 5.5 -10.1°
Maximum altitude 02:34:23 76° 300° (WNW) 871 3.4 -11.0°
Drops below altitude 10° 02:40:26 10° 27° (NNE) 2,641 5.9 -12.0°
Sets 02:43:10 0° 29° (NNE) 3,684 6.7 -12.4°
